Bennington, VT

1:09 AM EDT on July 22, 2017 (GMT -0400)
Morse State

Weather History for KDDH - September, 2013

Change the Weather History Date:

Tuesday, September 17, 2013

  Actual Average Record
Temperature  
Mean Temperature 47 °F 59 °F  
Max Temperature 62 °F 70 °F 82 °F (2015)
Min Temperature 32 °F 47 °F 32 °F (2013)
Degree Days  
Heating Degree Days 18 7  
Month to date heating degree days 118 81  
Since 1 July heating degree days 181 153  
Cooling Degree Days 0 1  
Month to date cooling degree days 44 21  
Year to date cooling degree days 503 309  
Moisture  
Dew Point 38 °F    
Average Humidity 71    
Maximum Humidity 96    
Minimum Humidity 46    
Precipitation  
Precipitation 0.00 in 0.12 in 1.08 in (2004)
Month to date precipitation 3.34 1.86  
Year to date precipitation 35.06 29.40  
Sea Level Pressure  
Sea Level Pressure 30.40 in    
Wind  
Wind Speed 2 mph (West)    
Max Wind Speed 9 mph    
Max Gust Speed 16 mph    
Visibility 10 miles    
Events      
T = Trace of Precipitation, MM = Missing Value Source: NWS Daily Summary

Daily Weather History Graph

Daily Weather History Graph

Search for Another Location

Airport or City:

Trip Planner

Search our weather history database for the weather conditions in past years. The results will help you decide how hot, cold, wet, or windy it might be!

Date:

Astronomy

Sep. 17, 2013 Rise Set
Actual Time 6:35 AM EDT 6:58 PM EDT
Civil Twilight 6:06 AM EDT 7:27 PM EDT
Nautical Twilight 5:33 AM EDT 8:00 PM EDT
Astronomical Twilight 4:58 AM EDT 8:34 PM EDT
Moon 5:45 PM EDT (9/17) 4:24 AM EDT (9/17)
Length of Visible Light 13h 20m
Length of Day
12h 23m
Waxing Gibbous, 96% of the Moon is Illuminated
Sep 17
Waxing Gibbous
Sep 19
Full
Sep 26
Last Quarter
Oct 4
New
Oct 11
First Quarter

Hourly Weather History & Observations

Time (EDT) Temp. Windchill Dew Point Humidity Pressure Visibility Wind Dir Wind Speed Gust Speed Precip Events Conditions
12:54 AM 36.0 °F - 34.0 °F 93% 30.34 in 10.0 mi Calm Calm - N/A   Clear
1:54 AM 36.0 °F 33.3 °F 34.0 °F 93% 30.35 in 10.0 mi SSE 3.5 mph - N/A   Clear
2:54 AM 36.0 °F - 34.0 °F 93% 30.36 in 10.0 mi Calm Calm - N/A   Clear
3:54 AM 34.0 °F - 32.0 °F 92% 30.37 in 10.0 mi Calm Calm - N/A   Clear
4:54 AM 34.0 °F - 32.0 °F 92% 30.38 in 10.0 mi Calm Calm - N/A   Clear
5:54 AM 33.1 °F - 30.9 °F 92% 30.41 in 10.0 mi Calm Calm - N/A   Clear
6:54 AM 32.0 °F - 30.0 °F 92% 30.42 in 10.0 mi Calm Calm - N/A   Clear
7:54 AM 37.9 °F - 35.1 °F 89% 30.45 in 10.0 mi Calm Calm - N/A   Clear
8:54 AM 44.1 °F - 39.0 °F 82% 30.46 in 10.0 mi Calm Calm - N/A   Clear
9:54 AM 48.0 °F - 37.9 °F 68% 30.47 in 10.0 mi Calm Calm - N/A   Clear
10:54 AM 53.1 °F - 37.0 °F 55% 30.46 in 10.0 mi Calm Calm - N/A   Clear
11:54 AM 55.0 °F - 39.0 °F 55% 30.45 in 10.0 mi WSW 5.8 mph - N/A   Clear
12:54 PM 57.9 °F - 39.9 °F 51% 30.44 in 10.0 mi West 5.8 mph - N/A   Clear
1:54 PM 60.1 °F - 39.0 °F 46% 30.42 in 10.0 mi Variable 5.8 mph - N/A   Clear
2:54 PM 60.1 °F - 39.9 °F 47% 30.40 in 10.0 mi WNW 4.6 mph - N/A   Clear
3:54 PM 62.1 °F - 42.1 °F 48% 30.38 in 10.0 mi NW 4.6 mph - N/A   Clear
4:54 PM 61.0 °F - 41.0 °F 48% 30.37 in 10.0 mi West 6.9 mph - N/A   Clear
5:54 PM 59.0 °F - 42.1 °F 53% 30.37 in 10.0 mi West 4.6 mph - N/A   Clear
6:54 PM 50.0 °F - 45.0 °F 83% 30.37 in 10.0 mi Calm Calm - N/A   Clear
7:54 PM 48.0 °F - 43.0 °F 83% 30.37 in 10.0 mi SSW 5.8 mph - N/A   Clear
8:54 PM 44.1 °F - 41.0 °F 89% 30.37 in 10.0 mi Calm Calm - N/A   Clear
9:54 PM 43.0 °F - 41.0 °F 93% 30.37 in 10.0 mi Calm Calm - N/A   Clear
10:54 PM 41.0 °F - 39.0 °F 93% 30.36 in 10.0 mi Calm Calm - N/A   Clear
11:54 PM 41.0 °F - 39.0 °F 93% 30.36 in 10.0 mi Calm Calm - N/A   Clear